Vorticity
nan nan nan nan nan nan nan nan nan nan nan nan nan nan nan nan nan nan nan nan nan nan nan nan nan nan nan nan nan nan nan nan nan nan nan nan nan nan nan nan nan nan nan
nan 10 11 10 7 8 9 9 9 9 9 9 9 9 9 9 10 10 10 10 9 10 10 10 13 14 12 13 11 12 11 11 11 9 9 8 8 7 9 8 7 8 nan
nan 9 8 9 8 8 8 8 8 8 9 10 9 9 9 9 10 9 9 10 10 9 10 11 11 11 10 10 11 13 12 12 13 11 10 9 9 8 7 7 9 9 nan
nan 8 10 8 8 8 8 8 8 8 8 8 8 8 8 8 7 8 10 10 9 9 9 9 10 12 15 15 12 11 10 11 12 11 10 9 9 9 8 8 8 9 nan
nan 10 7 7 8 9 8 8 8 8 8 8 7 7 7 7 8 9 8 9 9 8 9 8 7 9 10 16 17 16 15 10 10 10 9 10 10 11 9 10 10 9 nan
nan 9 9 8 8 8 8 8 8 8 8 8 8 8 8 6 4 9 11 11 8 9 9 9 12 7 1 7 9 11 17 18 14 13 11 10 11 11 11 10 10 8 nan
nan 10 9 8 8 8 9 8 8 8 8 7 9 8 9 7 6 7 10 13 9 8 9 10 9 8 8 11 9 2 5 11 14 15 11 12 13 11 13 10 7 8 nan
nan 9 8 6 6 10 11 7 8 11 10 8 8 8 7 7 9 6 8 10 8 8 9 9 8 8 7 8 12 7 6 8 13 15 11 12 13 12 10 9 9 9 nan
nan 9 9 9 8 8 11 9 7 8 8 10 9 8 7 8 6 6 13 11 6 8 6 9 12 5 3 13 15 9 9 7 8 9 9 7 6 9 15 16 10 7 nan
nan 9 11 11 10 8 11 11 7 6 10 10 10 6 8 10 5 8 14 13 8 7 9 4 6 10 9 16 12 8 6 5 8 9 8 7 5 4 8 13 11 11 nan
nan 16 12 11 10 10 7 8 10 13 11 9 7 7 11 11 8 4 13 15 9 9 11 8 4 6 11 11 13 13 8 8 10 7 6 8 9 7 7 8 11 11 nan
nan 12 12 11 11 12 7 6 9 11 10 10 8 7 9 7 11 13 11 11 13 11 7 12 10 7 7 14 17 8 5 10 10 10 9 8 9 11 6 7 8 10 nan
nan 10 9 8 11 10 10 12 11 10 10 11 8 8 10 10 9 9 10 8 13 12 9 10 11 11 9 7 7 9 12 12 9 9 9 9 10 10 12 13 8 10 nan
nan 8 9 10 10 13 18 16 13 11 10 10 10 9 10 10 12 11 8 7 6 10 14 6 3 5 9 14 13 8 10 9 11 11 11 11 11 8 12 11 10 11 nan
nan 10 10 11 11 11 12 16 18 16 18 14 12 12 11 12 10 12 16 12 9 9 8 10 9 9 7 7 10 12 11 9 9 10 11 11 10 10 11 9 11 11 nan
nan 10 11 11 11 10 8 3 11 21 20 17 14 12 11 16 15 12 11 11 12 10 6 8 10 10 10 11 11 11 10 9 6 10 11 11 10 9 10 12 10 10 nan
nan 11 10 11 11 11 11 10 3 4 7 11 12 12 18 14 9 10 9 8 7 7 10 11 11 10 9 8 9 9 8 10 9 8 10 11 11 12 10 9 10 11 nan
nan 10 13 11 11 10 9 10 10 9 6 5 9 11 11 11 11 10 7 5 9 8 13 12 9 10 9 9 9 9 9 8 8 7 9 9 10 10 12 10 10 9 nan
nan 10 8 11 11 9 10 10 10 10 9 9 9 9 7 8 9 8 8 10 12 11 12 9 10 10 9 9 9 8 8 8 8 10 10 9 9 9 10 10 14 12 nan
nan 12 14 10 10 12 10 10 10 10 11 11 10 13 12 6 9 10 10 11 11 12 11 10 11 9 10 11 9 10 11 9 7 6 6 9 10 9 8 9 9 8 nan
nan 9 12 14 11 11 11 12 12 12 11 10 11 14 13 6 11 12 12 12 11 10 10 12 10 9 8 9 9 9 8 8 10 10 8 8 9 10 10 10 10 10 nan
nan 11 13 12 12 14 11 12 11 10 10 10 9 8 7 12 12 11 11 10 9 10 11 10 8 9 10 8 12 11 10 12 11 12 12 11 10 11 10 9 9 10 nan
nan 10 11 12 9 10 12 9 9 9 8 9 9 9 8 10 9 10 10 10 11 11 10 9 10 11 13 11 11 12 14 13 12 12 12 11 11 10 10 12 11 11 nan
nan 10 10 9 11 7 9 7 7 7 11 10 10 12 10 9 10 10 12 11 8 10 12 13 14 17 13 11 13 13 12 12 13 11 10 10 11 11 10 12 12 13 nan
nan 9 10 10 9 9 9 10 10 11 10 10 9 10 12 12 14 14 15 14 12 11 11 11 14 14 12 11 10 14 10 8 11 15 13 11 12 13 14 11 11 12 nan
nan nan nan nan nan nan nan nan nan nan nan nan nan nan nan nan nan nan nan nan nan nan nan nan nan nan nan nan nan nan nan nan nan nan nan nan nan nan nan nan nan nan nan
CAPE
1401 240 110 283 687 520 359 223 182 189 181 96 12 17 23 36 34 24 13 20 69 108 178 371 691 814 1323 1352 1140 1231 768 1010 67 10 9 9 6 6 7 11 11 9 10
618 109 192 805 624 383 224 156 120 66 57 6 6 10 10 11 13 11 2 11 22 23 33 150 375 633 824 1075 1244 989 1013 795 287 6 8 6 5 4 4 3 8 5 7
401 715 995 926 570 368 259 145 125 34 2 1 1 2 3 5 9 12 17 6 7 27 26 24 29 96 413 436 343 249 24 11 3 2 4 9 9 5 5 4 4 3 2
467 972 1077 809 628 416 254 150 111 49 8 3 3 1 0 0 1 4 10 16 15 15 15 14 14 20 61 166 65 131 39 15 16 11 9 9 8 7 6 4 3 3 1
1290 1255 1310 959 706 503 333 196 94 54 6 4 3 4 2 0 0 0 0 8 12 13 16 9 2 0 0 0 26 60 58 36 6 8 9 7 6 6 6 4 7 5 0
1403 1291 1330 1023 803 522 361 277 151 90 49 15 8 7 2 0 0 0 0 0 0 0 0 2 3 0 0 0 0 0 0 43 28 20 9 11 12 11 8 6 5 9 21
1593 1482 1412 1118 994 854 733 377 249 135 78 50 27 13 9 0 0 0 0 0 0 0 0 0 0 0 2 2 0 0 0 0 0 56 55 56 58 55 38 20 18 20 26
1667 1745 1399 1096 561 803 831 557 262 140 90 57 48 18 5 0 0 0 0 1 3 3 1 0 0 0 0 2 2 0 0 0 5 13 28 41 49 32 51 54 47 36 15
1555 1598 1324 925 423 674 554 258 200 100 35 25 23 11 5 0 0 0 0 1 1 2 0 1 3 0 0 0 1 0 0 0 0 0 0 0 0 0 0 32 55 36 65
1883 1640 968 861 953 803 385 266 95 132 140 14 1 0 0 0 0 0 0 0 0 0 4 0 0 0 0 0 0 0 1 0 0 0 0 0 0 0 0 0 0 0 15
1552 1540 1255 1129 1221 842 249 96 253 247 119 11 1 0 0 1 0 0 0 1 0 0 0 0 0 0 0 0 0 5 1 0 0 0 0 0 0 0 0 0 0 0 0
350 521 935 881 995 469 561 164 33 11 6 5 2 0 0 0 0 0 0 0 0 0 0 0 0 0 0 0 0 0 0 0 0 0 0 0 0 0 0 0 0 0 0
383 658 732 686 566 778 949 812 74 8 1 0 0 0 0 0 0 0 0 0 0 0 0 0 0 0 0 0 0 0 0 0 0 0 0 0 0 0 0 0 1 0 16
37 13 60 81 4 7 133 19 3 3 0 3 1 0 0 0 0 0 0 0 0 0 0 0 0 0 0 0 0 0 0 0 0 0 0 0 0 0 0 0 0 0 0
11 8 6 5 5 4 1 1 1 1 0 0 0 0 0 0 0 0 0 0 0 0 0 0 0 0 0 0 0 0 0 0 0 0 0 0 0 0 0 0 0 0 0
10 11 8 4 6 5 3 1 1 1 0 0 0 0 0 0 0 0 0 0 0 0 0 0 2 0 0 0 0 0 0 0 0 0 0 0 0 0 0 0 0 0 0
7 8 1 3 4 4 7 2 2 1 0 0 0 0 0 0 0 0 0 0 0 0 0 7 2 0 0 0 0 0 0 0 0 0 0 0 0 0 0 0 0 0 0
10 0 7 3 3 4 2 0 1 1 0 0 0 0 0 0 0 0 0 0 0 0 2 4 0 0 0 0 0 0 0 0 0 0 0 0 0 0 0 0 0 0 0
7 5 9 8 3 2 2 0 0 0 1 2 0 0 0 0 0 0 0 0 12 3 0 0 1 0 0 0 0 0 0 1 0 0 1 4 6 5 5 6 9 0 0
10 2 1 14 1 3 2 6 10 23 10 0 0 0 0 0 0 0 0 0 1 0 0 0 0 0 3 1 3 5 17 16 20 20 20 22 30 32 28 26 25 25 31
10 5 0 21 21 28 29 2 0 0 0 0 0 0 0 0 0 0 0 0 0 0 0 0 1 4 4 15 23 34 36 49 46 43 50 48 53 51 51 43 38 46 43
21 11 0 0 0 0 0 0 0 0 0 0 0 0 0 0 0 0 0 0 0 0 0 0 0 4 10 15 18 21 30 42 49 41 52 53 68 81 78 66 66 63 55
0 0 0 0 0 0 0 0 0 0 0 0 0 0 0 0 0 0 0 0 0 0 0 0 0 5 0 0 0 2 5 12 10 3 20 42 60 52 40 29 23 14 8
0 0 0 0 0 0 0 0 1 0 7 18 22 26 15 0 0 0 0 0 0 0 0 0 0 0 0 0 0 0 0 0 0 0 0 0 0 0 0 0 0 0 0
11 8 8 6 5 0 8 14 34 40 30 38 48 9 12 63 53 40 11 0 0 0 0 0 0 0 0 0 0 0 0 0 0 0 0 0 0 0 0 0 0 0 0
118 45 28 25 28 17 12 14 16 21 34 47 9 16 3 14 37 19 0 0 0 0 0 0 0 0 0 0 0 0 0 0 0 0 0 0 0 0 0 0 0 0 0